Location: Edemissen
(51.7689°N, 9.8634°E)
Time: 00:22:54
(UTC+00:00)

Helios 1A Rocket - Visible Passes

Search period start: 16 September 2024 00:00
Search period end: 26 September 2024 00:00
Orbit: 510 x 531 km, 98.3° (Epoch: 15 September)

Date Brightness Start Highest point End Pass type
(mag) Time Alt. Az. Time Alt. Az. Time Alt. Az.
16 Sep 5.5 01:16:14 12° NNW 01:16:14 12° NNW 01:16:35 10° NNW visible
17 Sep 5.6 01:02:54 13° NNW 01:02:54 13° NNW 01:03:17 10° NNW visible
18 Sep 5.7 00:49:31 12° N 00:49:31 12° N 00:49:53 10° N visible
19 Sep 5.9 00:36:04 12° N 00:36:04 12° N 00:36:22 10° N visible
20 Sep 6.0 00:22:35 11° N 00:22:35 11° N 00:22:45 10° N visible
